timestamp,surface_pressure_avg,surface_temp_avg,battery_voltage,lat,long
2021-03-09 00:09:01+00:00,234.1064,1.0,12.81,47.84626,-54.09684
2021-03-09 00:19:01+00:00,236.123,1.0,12.73,47.84626,-54.09684
2021-03-09 00:29:01+00:00,236.5747,1.04,12.73,47.84626,-54.09684
2021-03-09 00:39:01+00:00,224.4714,1.05,12.73,47.84626,-54.09684
2021-03-09 00:49:01+00:00,219.6314,1.03,12.73,47.84626,-54.09684
2021-03-09 00:59:01+00:00,227.2164,1.05,12.73,47.84626,-54.09684
2021-03-09 01:09:01+00:00,228.8098,1.08,12.73,47.84626,-54.09684
2021-03-09 01:19:01+00:00,224.6714,1.09,12.73,47.84626,-54.09684
2021-03-09 01:29:01+00:00,226.5365,1.1,12.73,47.84626,-54.09684
2021-03-09 01:39:01+00:00,225.168,1.1,12.73,47.84626,-54.09684
2021-03-09 01:49:01+00:00,223.6931,1.0,12.73,47.84626,-54.09684
2021-03-09 01:59:01+00:00,230.548,1.0,12.73,47.84626,-54.09684
2021-03-09 02:09:01+00:00,230.0797,0.9,12.73,47.84626,-54.09684
2021-03-09 02:19:01+00:00,220.5647,0.8,12.65,47.84626,-54.09684
2021-03-09 02:29:01+00:00,222.8248,0.7,12.65,47.84626,-54.09684
2021-03-09 02:39:01+00:00,227.5231,0.71,12.65,47.84626,-54.09684
2021-03-09 02:49:01+00:00,223.2864,0.77,12.65,47.84626,-54.09684
2021-03-09 02:59:01+00:00,214.5898,0.8,12.65,47.84626,-54.09684
2021-03-09 03:09:01+00:00,222.6264,0.84,12.65,47.84626,-54.09684
2021-03-09 03:19:01+00:00,229.4681,0.9,12.65,47.84626,-54.09684
2021-03-09 03:29:01+00:00,219.5831,0.89,12.65,47.84626,-54.09684
2021-03-09 03:39:01+00:00,217.4131,0.88,12.65,47.84626,-54.09684
2021-03-09 03:49:01+00:00,227.6981,0.9,12.65,47.84626,-54.09684
2021-03-09 03:59:01+00:00,230.9065,1.0,12.65,47.84626,-54.09684
2021-03-09 04:09:01+00:00,230.1764,1.01,12.65,47.84626,-54.09684
2021-03-09 04:19:01+00:00,239.4664,1.09,12.65,47.84626,-54.09684
2021-03-09 04:29:01+00:00,240.3614,1.1,12.65,47.84626,-54.09684
2021-03-09 04:39:01+00:00,243.3647,1.1,12.65,47.84626,-54.09684
2021-03-09 04:49:01+00:00,249.9798,1.1,12.65,47.84626,-54.09684
2021-03-09 04:59:01+00:00,259.8664,1.1,12.65,47.84626,-54.09684
2021-03-09 05:09:01+00:00,264.968,1.1,12.65,47.84626,-54.09684
2021-03-09 05:19:01+00:00,276.1814,1.05,12.65,47.84626,-54.09684
2021-03-09 05:29:01+00:00,281.2614,1.1,12.65,47.84626,-54.09684
2021-03-09 05:39:01+00:00,283.428,1.1,12.65,47.84626,-54.09684
2021-03-09 05:49:01+00:00,287.7097,1.07,12.65,47.84626,-54.09684
2021-03-09 05:59:01+00:00,307.2513,1.1,12.65,47.84626,-54.09684
2021-03-09 06:09:01+00:00,306.3613,1.1,12.65,47.84626,-54.09684
2021-03-09 06:19:01+00:00,300.4847,1.03,12.65,47.84626,-54.09684
2021-03-09 06:29:01+00:00,305.4547,1.07,12.65,47.84626,-54.09684
2021-03-09 06:39:01+00:00,320.1896,1.1,12.65,47.84626,-54.09684
2021-03-09 06:49:01+00:00,321.788,1.1,12.65,47.84626,-54.09684
2021-03-09 06:59:01+00:00,321.7863,1.1,12.65,47.84626,-54.09684
2021-03-09 07:09:01+00:00,323.6281,1.1,12.65,47.84626,-54.09684
2021-03-09 07:19:01+00:00,333.1946,1.1,12.65,47.84626,-54.09684
2021-03-09 07:29:01+00:00,340.3096,1.1,12.65,47.84626,-54.09684
2021-03-09 07:39:01+00:00,339.9197,1.1,12.65,47.84626,-54.09684
2021-03-09 07:49:01+00:00,335.0246,1.1,12.65,47.84626,-54.09684
2021-03-09 07:59:01+00:00,338.728,1.0,12.65,47.84626,-54.09684
2021-03-09 08:09:01+00:00,345.4479,0.9,12.65,47.84626,-54.09684
2021-03-09 08:19:01+00:00,346.4813,0.6,12.65,47.84626,-54.09684
2021-03-09 08:29:01+00:00,341.6296,0.5,12.65,47.84626,-54.09684
2021-03-09 08:39:01+00:00,345.5563,0.57,12.65,47.84626,-54.09684
2021-03-09 08:49:01+00:00,347.6381,0.57,12.65,47.84626,-54.09684
2021-03-09 08:59:01+00:00,346.793,0.6,12.65,47.84626,-54.09684
2021-03-09 09:09:01+00:00,353.4014,0.6,12.65,47.84626,-54.09684
2021-03-09 09:19:01+00:00,351.3946,0.59,12.65,47.84626,-54.09684
2021-03-09 09:29:01+00:00,342.9564,0.65,12.65,47.84626,-54.09684
2021-03-09 09:39:01+00:00,342.5730000000001,0.7,12.65,47.84626,-54.09684
2021-03-09 09:49:01+00:00,344.5664,0.79,12.65,47.84626,-54.09684
2021-03-09 09:59:01+00:00,335.0497,0.8,12.65,47.84626,-54.09684
2021-03-09 10:09:01+00:00,320.693,0.81,12.65,47.84626,-54.09684
2021-03-09 10:19:01+00:00,322.9164,0.87,12.65,47.84626,-54.09684
2021-03-09 10:29:01+00:00,322.798,0.89,12.65,47.84626,-54.09684
2021-03-09 10:39:01+00:00,309.0313,0.8,12.65,47.84626,-54.09684
2021-03-09 10:49:01+00:00,307.8147,0.7,12.65,47.84626,-54.09684
2021-03-09 10:59:01+00:00,311.5963,0.72,12.65,47.84626,-54.09684
2021-03-09 11:09:01+00:00,301.9747,0.77,12.65,47.84626,-54.09684
2021-03-09 11:19:01+00:00,291.4781,0.84,12.65,47.84626,-54.09684
2021-03-09 11:29:01+00:00,299.1247,0.9,12.65,47.84626,-54.09684
2021-03-09 11:39:01+00:00,293.578,0.9,12.65,47.84626,-54.09684
2021-03-09 11:49:01+00:00,273.3981,0.76,12.65,47.84626,-54.09684
2021-03-09 11:59:01+00:00,266.0414,0.7,12.65,47.84626,-54.09684
2021-03-09 12:09:01+00:00,278.7464,0.71,12.65,47.84626,-54.09684
2021-03-09 12:19:01+00:00,277.198,0.9,12.89,47.84626,-54.09684
2021-03-09 12:29:01+00:00,260.4681,0.6,12.89,47.84626,-54.09684
2021-03-09 12:39:01+00:00,253.9197,0.88,12.89,47.84626,-54.09684
2021-03-09 12:49:01+00:00,260.9348,0.9,12.89,47.84626,-54.09684
2021-03-09 12:59:01+00:00,261.20799999999997,0.9,12.89,47.84626,-54.09684
2021-03-09 13:09:01+00:00,251.53799999999998,0.88,12.89,47.84626,-54.09684
2021-03-09 13:19:01+00:00,246.9515,0.8,13.68,47.84626,-54.09684
2021-03-09 13:29:01+00:00,246.1848,0.8,13.68,47.84626,-54.09684
2021-03-09 13:39:01+00:00,241.5098,0.8,13.68,47.84626,-54.09684
2021-03-09 13:49:01+00:00,238.698,0.86,13.68,47.84626,-54.09684
2021-03-09 13:59:01+00:00,236.4081,0.9,13.68,47.84626,-54.09684
2021-03-09 14:09:01+00:00,228.4097,0.9,13.68,47.84626,-54.09684
2021-03-09 14:19:01+00:00,221.7164,0.9,14.56,47.84626,-54.09684
2021-03-09 14:29:01+00:00,226.5398,0.9,14.56,47.84626,-54.09684
2021-03-09 14:39:01+00:00,226.9847,0.9,14.56,47.84626,-54.09684
2021-03-09 14:49:01+00:00,222.3781,0.91,14.56,47.84626,-54.09684
2021-03-09 14:59:01+00:00,212.4331,0.93,14.56,47.84626,-54.09684
2021-03-09 15:09:01+00:00,211.2246,0.91,14.56,47.84626,-54.09684
2021-03-09 15:19:01+00:00,213.4648,0.92,14.56,47.84626,-54.09684
2021-03-09 15:29:01+00:00,210.058,0.93,14.56,47.84626,-54.09684
2021-03-09 15:39:01+00:00,206.7848,0.91,14.56,47.84626,-54.09684
2021-03-09 15:49:01+00:00,204.0481,0.91,14.56,47.84626,-54.09684
2021-03-09 15:59:01+00:00,201.7981,0.93,14.56,47.84626,-54.09684
2021-03-09 16:09:01+00:00,206.6231,0.93,14.56,47.84626,-54.09684
2021-03-09 16:19:01+00:00,212.3531,0.94,14.48,47.84626,-54.09684
2021-03-09 16:29:01+00:00,207.6464,0.96,14.48,47.84626,-54.09684
2021-03-09 16:39:01+00:00,201.0781,0.99,14.48,47.84626,-54.09684
2021-03-09 16:49:01+00:00,205.5798,0.99,14.48,47.84626,-54.09684
2021-03-09 16:59:01+00:00,212.1031,0.98,14.48,47.84626,-54.09684
2021-03-09 17:09:01+00:00,211.0898,0.98,14.48,47.84626,-54.09684
2021-03-09 17:19:01+00:00,215.3898,0.96,14.56,47.84626,-54.09684
2021-03-09 17:29:01+00:00,224.7998,0.95,14.56,47.84626,-54.09684
2021-03-09 17:39:01+00:00,226.4998,0.95,14.56,47.84626,-54.09684
2021-03-09 17:49:01+00:00,225.7365,0.96,14.56,47.84626,-54.09684
2021-03-09 17:59:01+00:00,234.0748,0.96,14.56,47.84626,-54.09684
2021-03-09 18:09:01+00:00,244.9614,0.97,14.56,47.84626,-54.09684
2021-03-09 18:19:01+00:00,246.9615,0.99,14.56,47.84626,-54.09684
2021-03-09 18:29:01+00:00,245.5898,1.0,14.56,47.84626,-54.09684
2021-03-09 18:39:01+00:00,256.5847,1.0,14.56,47.84626,-54.09684
2021-03-09 18:49:01+00:00,264.4931,1.0,14.56,47.84626,-54.09684
2021-03-09 18:59:01+00:00,268.8064,1.0,14.56,47.84626,-54.09684
2021-03-09 19:09:01+00:00,267.9281,1.0,14.56,47.84626,-54.09684
2021-03-09 19:19:01+00:00,273.4414,1.0,14.32,47.84626,-54.09684
2021-03-09 19:29:01+00:00,274.7847,1.0,14.32,47.84626,-54.09684
2021-03-09 19:39:01+00:00,278.7497,1.0,14.32,47.84626,-54.09684
2021-03-09 19:49:01+00:00,280.2114,1.0,14.32,47.84626,-54.09684
2021-03-09 19:59:01+00:00,282.9214,1.0,14.32,47.84626,-54.09684
2021-03-09 20:09:01+00:00,284.7598,1.01,14.32,47.84626,-54.09684
2021-03-09 20:19:01+00:00,292.5397,1.0,14.0,47.84626,-54.09684
2021-03-09 20:29:01+00:00,298.1813,1.06,14.0,47.84626,-54.09684
2021-03-09 20:39:01+00:00,295.1247,1.09,14.0,47.84626,-54.09684
2021-03-09 20:49:01+00:00,297.858,1.09,14.0,47.84626,-54.09684
2021-03-09 20:59:01+00:00,304.3597,1.1,14.0,47.84626,-54.09684
2021-03-09 21:09:01+00:00,303.0631,1.1,14.0,47.84626,-54.09684
2021-03-09 21:19:01+00:00,299.5864,1.09,13.68,47.84626,-54.09684
2021-03-09 21:29:01+00:00,304.4464,1.09,13.68,47.84626,-54.09684
2021-03-09 21:39:01+00:00,312.553,1.09,13.68,47.84626,-54.09684
2021-03-09 21:49:01+00:00,305.2214,1.08,13.68,47.84626,-54.09684
2021-03-09 21:59:01+00:00,298.0415,1.08,13.68,47.84626,-54.09684
2021-03-09 22:09:01+00:00,300.2581,1.08,13.68,47.84626,-54.09684
2021-03-09 22:19:01+00:00,301.7647,1.07,13.21,47.84626,-54.09684
2021-03-09 22:29:01+00:00,297.7047,1.05,13.21,47.84626,-54.09684
2021-03-09 22:39:01+00:00,289.0164,1.0,13.21,47.84626,-54.09684
2021-03-09 22:49:01+00:00,283.4097,1.0,13.21,47.84626,-54.09684
2021-03-09 22:59:01+00:00,285.423,1.0,13.21,47.84626,-54.09684
2021-03-09 23:09:01+00:00,284.0881,1.0,13.21,47.84626,-54.09684
2021-03-09 23:19:01+00:00,274.3898,1.0,12.89,47.84626,-54.09684
2021-03-09 23:29:01+00:00,266.1331,1.01,12.89,47.84626,-54.09684
2021-03-09 23:39:01+00:00,268.1147,1.04,12.89,47.84626,-54.09684
2021-03-09 23:49:01+00:00,266.0764,1.06,12.89,47.84626,-54.09684
2021-03-09 23:59:01+00:00,257.9064,1.09,12.89,47.84626,-54.09684
